Probability
0 0 0 0 0 0 0 0 0 0 0 0 0 0 0 0 0 0 0 0 0 0 0 0 0 0 0 0 0 0 0 0 0 0 0 0 0 0 0 0 0 0 0
0 0 0 0 0 0 0 0 0 0 0 0 0 0 0 0 0 0 0 0 0 0 0 0 0 0 0 0 0 0 0 0 0 0 0 0 0 0 0 0 0 0 0
0 0 0 0 0 0 0 0 0 0 0 0 0 0 0 0 0 0 0 0 0 0 0 0 0 0 0 0 0 0 0 0 0 0 0 0 0 0 0 0 0 0 0
0 0 0 0 0 0 0 0 0 0 0 0 0 0 0 0 0 0 0 0 0 0 0 0 0 0 0 0 0 0 0 0 0 0 0 0 0 0 0 0 0 0 0
0 0 0 0 0 0 0 0 0 0 0 0 0 0 0 0 0 0 0 0 0 0 0 0 0 0 0 0 0 0 0 0 0 0 0 0 0 0 0 0 0 0 0
0 0 0 0 0 0 0 0 0 0 0 0 0 0 0 0 0 0 0 0 0 0 0 0 0 0 0 0 0 0 0 0 0 0 0 0 0 0 0 0 0 0 0
0 0 0 0 0 0 0 0 0 0 0 0 0 0 0 0 0 0 0 0 0 0 0 0 0 0 0 0 0 0 0 0 0 0 0 0 0 0 0 0 0 0 0
0 0 0 0 0 0 0 0 0 0 0 0 0 0 0 0 0 0 0 0 0 0 0 0 0 0 0 0 0 0 0 0 0 0 0 0 0 0 0 0 0 0 0
0 0 0 0 0 0 0 0 0 0 0 0 0 0 0 0 0 0 0 0 0 0 0 0 0 0 0 0 0 0 0 0 0 0 0 0 0 0 0 0 0 0 0
0 0 0 0 0 0 0 0 0 0 0 0 0 0 0 0 0 0 0 0 0 0 0 0 0 0 0 0 0 0 0 0 0 0 0 0 0 0 0 0 0 0 0
0 0 0 0 0 0 0 0 0 0 0 0 0 0 0 0 0 0 0 0 0 0 0 0 0 0 0 0 0 0 0 0 0 0 0 0 0 0 0 0 0 0 0
0 0 0 0 0 0 0 0 0 0 0 0 0 0 0 0 0 0 0 0 0 0 0 0 0 0 0 0 0 0 0 0 0 0 0 0 0 0 0 0 0 0 0
0 0 0 0 0 0 0 0 0 0 0 0 0 0 0 0 0 0 0 0 0 0 0 0 0 0 0 0 0 0 0 0 0 0 0 0 0 0 0 0 0 0 0
0 0 0 0 0 0 0 0 0 0 0 0 0 0 0 0 0 0 0 0 0 0 0 0 0 0 0 0 0 0 0 0 0 0 0 0 0 0 0 0 0 0 0
0 0 0 0 0 0 0 0 0 0 0 0 0 0 0 0 0 0 0 0 0 0 0 0 0 0 0 0 0 0 0 0 0 0 0 0 0 0 0 0 0 0 0
0 0 0 0 0 0 0 0 0 0 0 0 0 0 0 0 0 0 0 0 0 0 0 0 0 0 0 0 0 0 0 0 0 0 0 0 0 0 0 0 0 0 0
0 0 0 0 0 0 0 0 0 0 0 0 0 0 0 0 0 0 0 0 0 0 0 0 0 0 0 0 0 0 0 0 0 0 0 0 0 0 0 0 0 0 0
0 0 0 0 0 0 0 0 0 0 0 0 0 0 0 0 0 0 0 0 0 0 0 0 0 0 0 0 0 0 0 0 0 0 0 0 0 0 0 0 0 0 0
0 0 0 0 0 0 0 0 0 0 0 0 0 0 0 0 0 0 0 0 0 0 0 0 0 0 0 0 0 0 0 0 0 0 0 0 0 0 0 0 0 0 0
0 0 0 0 0 0 0 0 0 0 0 0 0 0 0 0 0 0 0 0 0 0 0 0 0 0 0 0 0 0 0 0 0 0 0 0 0 0 0 0 0 0 0
0 0 0 0 0 0 0 0 0 0 0 0 0 0 0 0 0 0 0 0 0 0 0 0 0 0 0 0 0 0 0 0 0 0 0 0 0 0 0 0 0 0 0
0 0 0 0 0 0 0 0 0 0 0 0 0 0 0 0 0 0 0 0 0 0 0 0 0 0 0 0 0 0 0 0 0 0 0 0 0 0 0 0 0 0 0
0 0 0 0 0 0 0 0 0 0 0 0 0 0 0 0 0 0 0 0 0 0 0 0 0 0 0 0 0 0 0 0 0 0 0 0 0 0 0 0 0 0 0
0 0 0 0 0 0 0 0 0 0 0 0 0 0 0 0 0 0 0 0 0 0 0 0 0 0 0 0 0 0 0 0 0 0 0 0 0 0 0 0 0 0 0
0 0 0 0 0 0 0 0 0 0 0 0 0 0 0 0 0 0 0 0 0 0 0 0 0 0 0 0 0 0 0 0 0 0 0 0 0 0 0 0 0 0 0
0 0 0 0 0 0 0 0 0 0 0 0 0 0 0 0 0 0 0 0 0 0 0 0 0 0 0 0 0 0 0 0 0 0 0 0 0 0 0 0 0 0 0
Wind_Speed
7 8 9 10 12 12 13 13 13 14 14 14 14 14 14 14 13 14 14 14 15 15 16 16 16 16 17 17 17 17 17 16 16 16 16 16 16 16 15 14 13 13 16
10 10 10 10 12 13 13 13 13 13 14 14 14 13 13 13 13 13 13 14 14 15 15 15 15 15 15 15 15 15 15 15 14 12 11 14 15 15 15 15 14 11 15
11 10 11 9 12 13 13 13 13 13 13 14 13 13 13 13 13 13 13 13 13 14 14 15 14 14 14 14 14 14 14 13 12 8 7 10 12 14 14 14 15 15 15
11 10 10 10 11 12 12 12 13 13 13 13 13 13 12 12 12 12 12 12 12 13 14 14 14 14 13 14 14 13 13 12 9 5 7 9 10 13 14 14 15 15 15
10 10 11 10 11 12 12 12 13 13 13 13 12 12 12 12 12 12 11 11 12 12 13 13 13 13 13 13 13 12 12 10 6 7 9 8 9 12 13 14 14 14 14
10 10 11 9 11 12 12 12 13 13 13 13 12 12 12 12 11 11 11 11 11 11 12 12 12 12 12 12 12 11 10 7 4 8 8 8 8 12 13 13 13 13 13
10 9 11 9 10 10 11 12 12 13 13 12 12 11 11 11 11 10 10 10 10 11 11 11 11 11 11 11 10 10 8 5 6 7 7 8 9 11 12 12 12 12 12
10 9 10 9 8 9 9 10 11 12 12 12 12 11 11 10 10 10 10 10 10 10 10 10 10 10 10 9 9 8 7 4 5 6 7 8 9 9 10 11 11 11 11
9 9 9 10 10 9 8 9 9 10 10 11 11 11 9 9 9 8 7 8 9 9 9 9 9 9 8 8 8 7 6 4 4 5 6 6 7 9 9 9 10 10 11
9 9 9 9 9 10 10 9 9 9 9 9 10 9 9 8 7 6 6 7 8 9 9 8 8 8 7 7 7 6 3 1 5 4 4 5 6 7 8 8 9 9 10
8 8 8 9 9 9 9 9 9 9 9 10 9 10 8 7 8 6 6 6 7 8 8 8 7 7 6 6 5 3 1 1 3 3 4 5 5 6 6 7 7 8 8
11 10 8 9 9 9 7 8 7 7 8 8 8 9 7 6 5 5 6 5 6 6 7 7 7 6 4 4 5 3 1 2 1 2 3 4 4 5 4 5 5 7 7
12 11 9 9 9 9 7 6 5 5 6 7 8 8 6 6 5 5 5 5 6 6 6 6 6 4 3 2 2 2 1 0 0 1 2 3 3 3 3 3 5 5 6
12 12 11 11 10 10 8 7 6 5 5 6 7 9 7 5 5 5 4 5 5 4 5 5 3 4 4 3 3 2 2 1 1 0 2 3 2 1 1 2 4 5 5
13 13 13 12 11 10 9 7 7 7 7 7 7 8 8 6 6 6 5 5 5 5 5 5 5 5 5 4 4 4 3 2 2 2 1 0 2 2 1 2 3 4 4
14 14 13 13 13 11 10 9 8 7 7 7 7 9 10 7 7 6 6 6 6 6 5 5 5 5 4 4 5 5 4 4 3 3 3 2 2 2 3 4 4 4 5
14 14 14 13 13 13 13 11 8 8 8 8 8 9 10 9 8 7 7 7 6 6 6 5 6 5 5 5 6 6 5 5 5 5 5 4 3 3 4 5 6 6 6
14 15 14 12 14 14 13 12 9 8 9 8 8 8 11 11 10 8 7 7 7 6 6 6 6 6 6 6 6 5 5 5 6 6 6 6 5 5 5 6 7 8 8
15 15 15 15 15 15 14 11 10 9 10 9 9 9 10 12 12 10 8 8 8 7 7 6 7 6 6 6 6 5 6 6 7 7 8 8 8 7 6 6 7 8 9
14 15 16 16 16 14 12 10 9 10 10 9 9 10 12 11 13 11 9 10 9 7 8 8 8 7 6 6 5 6 7 7 7 8 9 8 8 9 9 8 7 8 10
14 16 17 17 16 14 11 11 11 11 10 10 10 12 14 13 14 13 10 10 10 9 10 10 9 9 8 6 5 6 7 9 10 9 9 8 9 10 10 10 9 7 7
15 16 17 18 17 17 14 12 10 11 10 11 10 12 15 15 15 12 14 11 11 10 12 11 11 8 7 7 6 5 5 6 8 9 8 9 10 9 10 11 11 10 9
15 17 15 18 18 19 18 12 9 9 8 10 12 12 15 16 15 14 15 13 12 12 11 13 13 13 10 9 9 8 6 6 3 5 8 8 9 9 9 10 12 12 11
15 15 16 17 18 18 18 15 17 14 14 15 13 12 14 16 16 16 16 15 14 12 13 13 14 12 13 10 8 10 10 7 6 5 5 7 9 10 11 9 10 12 12
13 13 14 16 17 18 18 19 18 17 15 12 13 15 15 14 16 17 16 15 15 13 14 14 13 14 12 12 10 8 10 10 11 9 9 7 7 8 10 11 10 10 11
11 11 12 14 16 17 18 19 20 21 19 17 16 14 13 11 12 17 16 16 15 14 15 15 14 15 13 14 12 10 9 8 9 11 12 11 9 8 9 9 10 10 10
Wind_Direction
148 143 138 139 132 126 122 119 117 115 113 111 109 106 105 103 102 102 102 100 98 96 93 90 88 86 84 82 80 78 75 73 71 72 73 72 72 71 68 62 62 65 60
141 144 138 139 133 129 126 123 121 119 117 114 113 111 109 108 107 106 105 104 102 100 98 96 93 91 89 87 85 82 78 74 69 67 73 78 71 68 66 62 58 62 61
143 144 144 135 133 131 130 128 126 123 121 118 116 115 113 112 112 110 109 107 106 104 103 101 98 95 93 91 88 85 81 75 67 58 67 75 75 70 67 63 62 61 60
146 148 144 134 136 135 135 133 130 126 124 121 119 119 117 117 116 115 113 111 109 107 105 104 101 98 95 93 90 86 80 72 60 42 68 70 74 70 67 65 63 61 60
149 148 136 138 138 139 138 137 133 130 127 125 123 122 121 120 119 119 117 112 109 108 107 106 105 102 99 96 93 88 80 72 59 67 69 70 73 72 71 68 66 63 59
151 150 143 143 142 143 142 141 139 136 133 130 128 127 125 124 124 124 121 116 112 110 109 108 108 105 102 98 95 88 79 64 73 69 68 67 72 76 75 72 68 64 61
154 155 151 146 144 144 146 145 144 142 139 136 133 131 130 129 130 130 127 122 117 113 112 111 111 109 105 101 96 87 74 44 63 70 66 68 67 73 75 71 69 66 64
159 159 154 146 145 147 148 147 146 145 143 140 138 137 135 135 136 136 134 130 127 123 119 118 116 113 109 103 95 85 66 29 79 71 69 67 58 71 75 71 71 71 71
163 165 163 163 159 151 148 148 146 144 143 143 141 139 135 135 135 135 137 139 137 132 126 123 122 119 114 108 99 88 71 16 64 68 62 60 49 68 73 75 77 77 77
170 174 172 171 171 168 162 151 148 145 144 142 137 131 129 129 128 127 147 145 144 138 132 129 126 122 118 112 105 94 78 278 70 72 64 55 46 64 72 83 80 82 80
181 183 182 178 178 175 170 158 159 151 147 145 141 137 150 160 156 156 151 138 141 139 137 135 129 122 121 116 108 109 197 71 70 59 59 41 48 68 77 85 86 87 86
189 189 190 188 183 181 172 171 176 172 168 175 167 167 175 170 164 162 129 123 123 131 139 137 131 142 175 152 140 186 145 88 69 63 62 36 46 60 75 89 93 94 93
195 193 197 196 191 188 182 183 182 181 179 184 181 180 179 175 170 177 165 157 161 165 168 157 173 183 183 175 177 176 148 185 49 60 66 35 34 49 75 98 114 106 103
201 200 199 199 198 197 192 190 189 189 188 190 188 189 186 186 188 186 190 186 185 188 188 193 192 188 190 190 200 202 205 230 248 306 57 20 344 3 81 124 131 122 121
207 205 202 202 203 200 197 197 198 199 199 197 193 194 198 196 196 195 197 197 200 199 198 202 203 197 201 202 208 217 221 227 239 245 198 77 309 267 234 186 166 158 154
211 209 205 204 206 204 203 202 203 204 204 206 203 202 203 206 203 200 202 204 207 207 210 211 212 211 214 215 218 224 232 232 232 239 245 208 215 254 239 224 206 196 184
211 210 208 207 206 207 209 209 208 207 206 208 209 208 207 210 209 208 209 209 210 208 210 215 216 221 224 223 226 227 232 237 237 238 241 243 225 214 233 232 223 219 210
213 210 209 206 208 209 211 210 210 210 210 212 211 210 211 212 213 213 216 216 211 209 211 214 216 220 224 228 231 229 231 234 238 240 240 237 238 231 218 221 226 223 220
215 212 210 208 210 210 211 212 212 212 213 215 213 212 212 212 213 215 219 219 211 212 217 217 221 225 229 231 236 240 240 239 239 237 238 237 236 235 234 212 217 224 227
218 216 214 211 212 210 210 213 215 216 217 217 216 217 214 212 212 215 220 219 213 214 217 217 223 225 234 236 239 246 247 245 242 240 239 236 232 232 233 230 222 220 225
218 216 215 213 211 207 206 207 210 214 215 216 218 219 218 216 212 214 217 218 214 217 219 218 220 223 226 224 236 249 248 243 242 239 236 235 232 230 231 230 230 229 223
219 217 217 216 213 209 210 209 213 215 218 219 217 220 220 219 216 214 217 217 213 218 221 219 216 221 223 209 219 239 258 242 230 231 232 233 235 230 230 230 230 228 230
225 220 217 216 214 212 211 210 210 215 220 217 218 219 219 219 218 215 218 219 216 216 219 218 215 218 222 214 219 224 238 251 250 216 225 228 229 228 231 230 230 230 230
230 225 222 220 217 214 210 211 209 210 216 219 219 219 218 216 218 218 219 219 220 218 222 220 218 219 222 223 217 230 242 261 262 264 221 226 230 233 233 230 231 231 230
239 230 225 223 220 216 211 213 214 219 224 226 221 222 220 216 217 218 218 219 220 221 223 222 219 220 221 225 220 216 230 241 246 256 264 248 232 233 234 234 233 233 229
246 234 229 225 224 219 214 214 217 220 223 224 222 221 220 219 217 217 218 220 221 222 223 223 222 221 222 226 228 223 219 223 224 232 248 257 256 246 230 229 232 233 231